TimeCST,TemperatureF,Dew PointF,Humidity,Sea Level PressureIn,VisibilityMPH,Wind Direction,Wind SpeedMPH,Gust SpeedMPH,PrecipitationIn,Events,Conditions,WindDirDegrees,DateUTC
12:53 AM,17.1,10.9,77,30.22,10.0,SW,4.6,-,N/A,,Clear,220,2013-01-16 06:53:00
1:53 AM,17.1,12.0,81,30.21,10.0,WSW,4.6,-,N/A,,Clear,250,2013-01-16 07:53:00
2:53 AM,17.1,10.9,77,30.20,10.0,WSW,6.9,-,N/A,,Clear,240,2013-01-16 08:53:00
3:53 AM,18.0,10.9,74,30.17,10.0,SW,9.2,-,N/A,,Clear,220,2013-01-16 09:53:00
4:53 AM,18.0,10.0,71,30.14,10.0,SW,9.2,-,N/A,,Clear,230,2013-01-16 10:53:00
5:53 AM,18.0,10.9,74,30.15,10.0,SW,8.1,-,N/A,,Clear,230,2013-01-16 11:53:00
6:53 AM,18.0,10.9,74,30.15,10.0,SSW,10.4,-,N/A,,Clear,210,2013-01-16 12:53:00
7:53 AM,19.0,10.9,71,30.13,10.0,South,11.5,-,N/A,,Clear,190,2013-01-16 13:53:00
8:53 AM,24.1,14.0,65,30.15,10.0,SW,11.5,-,N/A,,Clear,220,2013-01-16 14:53:00
9:53 AM,28.9,15.1,56,30.15,10.0,SW,13.8,19.6,N/A,,Clear,230,2013-01-16 15:53:00
10:53 AM,32.0,17.1,54,30.14,10.0,SW,11.5,20.7,N/A,,Clear,230,2013-01-16 16:53:00
11:53 AM,35.1,18.0,50,30.10,10.0,SW,12.7,21.9,N/A,,Clear,230,2013-01-16 17:53:00
12:53 PM,37.9,18.0,45,30.08,10.0,SW,18.4,25.3,N/A,,Clear,220,2013-01-16 18:53:00
1:53 PM,39.0,19.0,45,30.06,10.0,SW,19.6,28.8,N/A,,Clear,230,2013-01-16 19:53:00
2:53 PM,41.0,21.9,47,30.07,10.0,WSW,11.5,20.7,N/A,,Scattered Clouds,240,2013-01-16 20:53:00
3:53 PM,39.0,23.0,53,30.09,10.0,SW,9.2,-,N/A,,Overcast,230,2013-01-16 21:53:00
4:53 PM,39.0,24.1,55,30.11,10.0,SW,9.2,-,N/A,,Overcast,230,2013-01-16 22:53:00
5:53 PM,37.9,23.0,55,30.12,10.0,WSW,8.1,-,N/A,,Partly Cloudy,250,2013-01-16 23:53:00
6:53 PM,36.0,24.1,62,30.14,10.0,SW,8.1,-,N/A,,Clear,230,2013-01-17 00:53:00
7:53 PM,37.0,23.0,57,30.14,10.0,WSW,8.1,-,N/A,,Clear,240,2013-01-17 01:53:00
8:53 PM,36.0,21.9,57,30.14,10.0,SW,5.8,-,N/A,,Clear,220,2013-01-17 02:53:00
9:53 PM,34.0,23.0,64,30.14,10.0,SW,5.8,-,N/A,,Clear,220,2013-01-17 03:53:00
10:53 PM,34.0,21.9,61,30.16,10.0,SW,6.9,-,N/A,,Clear,220,2013-01-17 04:53:00
11:53 PM,36.0,23.0,59,30.16,10.0,West,5.8,-,N/A,,Clear,260,2013-01-17 05:53:00